| time (UTC) | temp C | wind direction | speed KPH | gust KPH | rain 1hr cm | rain 24hr cm | rain mn cm | humidity % | barometer mb |
| 20260502200216 | 18 | 37 | 0.0 | 3.2 | 0.00 | 0.00 | 0.00 | 71 | 1014.0 |
| 20260502195211 | 19 | 298 | 0.0 | 3.2 | 0.00 | 0.00 | 0.00 | 70 | 1014.1 |
| 20260502194713 | 19 | 290 | 0.0 | 3.2 | 0.00 | 0.00 | 0.00 | 70 | 1014.1 |
| 20260502193710 | 19 | 290 | 0.0 | 3.2 | 0.00 | 0.00 | 0.00 | 69 | 1014.1 |
| 20260502191739 | 20 | 289 | 1.6 | 6.4 | 0.00 | 0.00 | 0.00 | 67 | 1013.9 |
| 20260502191227 | 20 | 302 | 3.2 | 6.4 | 0.00 | 0.00 | 0.00 | 66 | 1013.8 |
| 20260502190218 | 20 | 288 | 3.2 | 8.0 | 0.00 | 0.00 | 0.00 | 66 | 1013.8 |
| 20260502185711 | 20 | 298 | 3.2 | 8.0 | 0.00 | 0.00 | 0.00 | 64 | 1013.8 |
| 20260502185213 | 21 | 298 | 1.6 | 8.0 | 0.00 | 0.00 | 0.00 | 64 | 1013.7 |
| 20260502184211 | 21 | 300 | 3.2 | 4.8 | 0.00 | 0.00 | 0.00 | 63 | 1013.8 |
| 20260502183713 | 21 | 293 | 1.6 | 4.8 | 0.00 | 0.00 | 0.00 | 61 | 1013.8 |
| 20260502182216 | 22 | 293 | 3.2 | 8.0 | 0.00 | 0.00 | 0.00 | 60 | 1013.7 |
| 20260502181705 | 22 | 292 | 0.0 | 3.2 | 0.00 | 0.00 | 0.00 | 60 | 1013.7 |
| 20260502181220 | 22 | 282 | 0.0 | 6.4 | 0.00 | 0.00 | 0.00 | 59 | 1013.7 |
| 20260502180211 | 22 | 282 | 3.2 | 8.0 | 0.00 | 0.00 | 0.00 | 58 | 1013.8 |
| 20260502170208 | 22 | 303 | 6.4 | 14.5 | 0.00 | 0.00 | 0.00 | 58 | 1014.1 |
| 20260502164217 | 22 | 269 | 8.0 | 11.3 | 0.00 | 0.00 | 0.00 | 58 | 1014.4 |
| 20260502163211 | 22 | 193 | 3.2 | 11.3 | 0.00 | 0.00 | 0.00 | 59 | 1014.5 |
| 20260502162210 | 22 | 275 | 4.8 | 17.7 | 0.00 | 0.00 | 0.00 | 58 | 1014.5 |
| 20260502161718 | 22 | 269 | 3.2 | 17.7 | 0.00 | 0.00 | 0.00 | 58 | 1014.6 |
| 20260502160714 | 22 | 278 | 4.8 | 14.5 | 0.00 | 0.00 | 0.00 | 58 | 1014.6 |
| 20260502160210 | 22 | 300 | 3.2 | 9.7 | 0.00 | 0.00 | 0.00 | 58 | 1014.6 |
| 20260502151711 | 22 | 286 | 6.4 | 14.5 | 0.00 | 0.00 | 0.00 | 57 | 1015.1 |
| 20260502151215 | 22 | 245 | 0.0 | 19.3 | 0.00 | 0.00 | 0.00 | 57 | 1015.2 |
| 20260502150711 | 23 | 269 | 3.2 | 19.3 | 0.00 | 0.00 | 0.00 | 56 | 1015.3 |
| 20260502150215 | 23 | 290 | 6.4 | 16.1 | 0.00 | 0.00 | 0.00 | 56 | 1015.3 |
| 20260502130712 | 23 | 247 | 3.2 | 19.3 | 0.00 | 0.00 | 0.00 | 49 | 1015.8 |
| 20260502130206 | 24 | 258 | 3.2 | 19.3 | 0.00 | 0.00 | 0.00 | 50 | 1015.9 |
| 20260502123716 | 24 | 179 | 6.4 | 16.1 | 0.00 | 0.00 | 0.00 | 48 | 1016.0 |
| 20260502123212 | 25 | 0 | 3.2 | 14.5 | 0.00 | 0.00 | 0.00 | 47 | 1016.0 |
| 20260502122707 | 25 | 207 | 4.8 | 14.5 | 0.00 | 0.00 | 0.00 | 50 | 1016.1 |
| 20260502122210 | 24 | 195 | 3.2 | 14.5 | 0.00 | 0.00 | 0.00 | 49 | 1016.1 |
| 20260502121714 | 25 | 299 | 6.4 | 17.7 | 0.00 | 0.00 | 0.00 | 48 | 1016.2 |
| 20260502121218 | 25 | 247 | 6.4 | 17.7 | 0.00 | 0.00 | 0.00 | 48 | 1016.3 |
| 20260502120214 | 25 | 180 | 3.2 | 17.7 | 0.00 | 0.00 | 0.00 | 46 | 1016.3 |
| 20260502115718 | 25 | 203 | 4.8 | 17.7 | 0.00 | 0.00 | 0.00 | 45 | 1016.4 |
| 20260502115210 | 25 | 186 | 6.4 | 14.5 | 0.00 | 0.00 | 0.00 | 46 | 1016.3 |
| 20260502114713 | 24 | 192 | 6.4 | 14.5 | 0.00 | 0.00 | 0.00 | 51 | 1016.4 |
| 20260502113713 | 25 | 213 | 6.4 | 11.3 | 0.00 | 0.00 | 0.00 | 48 | 1016.5 |
| 20260502112713 | 24 | 221 | 3.2 | 14.5 | 0.00 | 0.00 | 0.00 | 47 | 1016.6 |
| 20260502112216 | 24 | 165 | 4.8 | 16.1 | 0.00 | 0.00 | 0.00 | 49 | 1016.7 |
| 20260502110718 | 24 | 224 | 4.8 | 16.1 | 0.00 | 0.00 | 0.00 | 47 | 1016.8 |
| 20260502105218 | 24 | 155 | 3.2 | 11.3 | 0.00 | 0.00 | 0.00 | 45 | 1016.9 |
| 20260502104716 | 24 | 193 | 6.4 | 16.1 | 0.00 | 0.00 | 0.00 | 45 | 1016.9 |
| 20260502104208 | 23 | 203 | 4.8 | 16.1 | 0.00 | 0.00 | 0.00 | 43 | 1016.9 |
| 20260502103714 | 23 | 190 | 3.2 | 16.1 | 0.00 | 0.00 | 0.00 | 47 | 1017.0 |
| 20260502103232 | 23 | 189 | 3.2 | 9.7 | 0.00 | 0.00 | 0.00 | 41 | 1017.0 |
| 20260502101725 | 23 | 183 | 4.8 | 11.3 | 0.00 | 0.00 | 0.00 | 43 | 1017.0 |
| 20260502101207 | 22 | 162 | 1.6 | 14.5 | 0.00 | 0.00 | 0.00 | 44 | 1017.2 |
| 20260502100211 | 21 | 257 | 1.6 | 14.5 | 0.00 | 0.00 | 0.00 | 44 | 1017.3 |
| 20260502090707 | 21 | 255 | 3.2 | 9.7 | 0.00 | 0.00 | 0.00 | 44 | 1017.4 |
| 20260502071205 | 17 | 176 | 1.6 | 6.4 | 0.00 | 0.00 | 0.00 | 58 | 1018.0 |
| 20260502070711 | 16 | 175 | 1.6 | 6.4 | 0.00 | 0.00 | 0.00 | 59 | 1018.0 |
| 20260502070216 | 16 | 179 | 0.0 | 4.8 | 0.00 | 0.00 | 0.00 | 59 | 1018.1 |
| 20260502065706 | 16 | 179 | 0.0 | 4.8 | 0.00 | 0.00 | 0.00 | 60 | 1018.1 |
| 20260502065216 | 16 | 179 | 1.6 | 4.8 | 0.00 | 0.00 | 0.00 | 60 | 1018.1 |
| 20260502064716 | 15 | 155 | 1.6 | 4.8 | 0.00 | 0.00 | 0.00 | 61 | 1018.2 |
| 20260502064217 | 15 | 152 | 0.0 | 4.8 | 0.00 | 0.00 | 0.00 | 63 | 1018.2 |
| 20260502063712 | 15 | 151 | 0.0 | 4.8 | 0.00 | 0.00 | 0.00 | 62 | 1018.2 |
| 20260502063209 | 15 | 151 | 1.6 | 4.8 | 0.00 | 0.00 | 0.00 | 65 | 1018.2 |
| 20260502062708 | 14 | 151 | 0.0 | 4.8 | 0.00 | 0.00 | 0.00 | 64 | 1018.2 |
| 20260502062212 | 14 | 151 | 1.6 | 4.8 | 0.00 | 0.00 | 0.00 | 67 | 1018.2 |
| 20260502061712 | 13 | 128 | 1.6 | 4.8 | 0.00 | 0.00 | 0.00 | 67 | 1018.2 |
| 20260502061218 | 13 | 128 | 0.0 | 4.8 | 0.00 | 0.00 | 0.00 | 67 | 1018.3 |
| 20260502060720 | 13 | 128 | 0.0 | 4.8 | 0.00 | 0.00 | 0.00 | 66 | 1018.3 |
| 20260502060214 | 13 | 130 | 0.0 | 3.2 | 0.00 | 0.00 | 0.00 | 67 | 1018.2 |
| 20260502055711 | 12 | 127 | 0.0 | 3.2 | 0.00 | 0.00 | 0.00 | 68 | 1018.3 |
| 20260502055209 | 12 | 127 | 0.0 | 3.2 | 0.00 | 0.00 | 0.00 | 69 | 1018.3 |
| 20260502054707 | 12 | 127 | 0.0 | 3.2 | 0.00 | 0.00 | 0.00 | 68 | 1018.3 |
| 20260502054212 | 12 | 127 | 0.0 | 1.6 | 0.00 | 0.00 | 0.00 | 69 | 1018.3 |
| 20260502053717 | 11 | 127 | 0.0 | 1.6 | 0.00 | 0.00 | 0.00 | 71 | 1018.4 |
| 20260502052713 | 10 | 127 | 0.0 | 0.0 | 0.00 | 0.00 | 0.00 | 74 | 1018.4 |
| 20260502051707 | 10 | 127 | 0.0 | 3.2 | 0.00 | 0.00 | 0.00 | 74 | 1018.4 |
| 20260502051211 | 10 | 127 | 0.0 | 3.2 | 0.00 | 0.00 | 0.00 | 76 | 1018.4 |
| 20260502050711 | 9 | 127 | 0.0 | 3.2 | 0.00 | 0.00 | 0.00 | 78 | 1018.4 |
| 20260502045211 | 8 | 127 | 0.0 | 1.6 | 0.00 | 0.00 | 0.00 | 80 | 1018.4 |
| 20260502044719 | 8 | 127 | 0.0 | 1.6 | 0.00 | 0.00 | 0.00 | 80 | 1018.4 |
| 20260502044215 | 8 | 127 | 0.0 | 3.2 | 0.00 | 0.00 | 0.00 | 80 | 1018.4 |
| 20260502043715 | 8 | 127 | 0.0 | 3.2 | 0.00 | 0.00 | 0.00 | 80 | 1018.4 |
| 20260502043220 | 7 | 127 | 0.0 | 1.6 | 0.00 | 0.00 | 0.00 | 80 | 1018.4 |
| 20260502042718 | 7 | 127 | 0.0 | 1.6 | 0.00 | 0.00 | 0.00 | 80 | 1018.4 |
| 20260502042215 | 7 | 127 | 0.0 | 1.6 | 0.00 | 0.00 | 0.00 | 80 | 1018.4 |
| 20260502041713 | 7 | 127 | 0.0 | 1.6 | 0.00 | 0.00 | 0.00 | 80 | 1018.5 |
| 20260502041223 | 7 | 127 | 0.0 | 1.6 | 0.00 | 0.00 | 0.00 | 80 | 1018.4 |
| 20260502040710 | 7 | 127 | 0.0 | 1.6 | 0.00 | 0.00 | 0.00 | 80 | 1018.5 |
| 20260502040212 | 7 | 127 | 0.0 | 0.0 | 0.00 | 0.00 | 0.00 | 80 | 1018.5 |
| 20260502035711 | 7 | 127 | 0.0 | 0.0 | 0.00 | 0.00 | 0.00 | 80 | 1018.5 |
| 20260502035214 | 7 | 127 | 0.0 | 1.6 | 0.00 | 0.00 | 0.00 | 80 | 1018.6 |
| 20260502034707 | 7 | 127 | 0.0 | 1.6 | 0.00 | 0.00 | 0.00 | 80 | 1018.7 |
| 20260502034208 | 8 | 127 | 0.0 | 1.6 | 0.00 | 0.00 | 0.00 | 80 | 1018.7 |
| 20260502033714 | 8 | 127 | 0.0 | 1.6 | 0.00 | 0.00 | 0.00 | 80 | 1018.7 |
| 20260502032709 | 8 | 127 | 0.0 | 1.6 | 0.00 | 0.00 | 0.00 | 79 | 1018.8 |
| 20260502032206 | 8 | 127 | 0.0 | 1.6 | 0.00 | 0.00 | 0.00 | 79 | 1018.7 |
| 20260502031705 | 8 | 127 | 0.0 | 1.6 | 0.00 | 0.00 | 0.00 | 79 | 1018.8 |
| 20260502031213 | 8 | 127 | 0.0 | 1.6 | 0.00 | 0.00 | 0.00 | 79 | 1018.8 |
| 20260502030708 | 8 | 127 | 0.0 | 1.6 | 0.00 | 0.00 | 0.00 | 79 | 1018.8 |
| 20260502030216 | 8 | 127 | 0.0 | 1.6 | 0.00 | 0.00 | 0.00 | 79 | 1018.8 |
| 20260502025715 | 8 | 127 | 0.0 | 1.6 | 0.00 | 0.00 | 0.00 | 79 | 1018.9 |
| 20260502025215 | 8 | 127 | 0.0 | 1.6 | 0.00 | 0.00 | 0.00 | 79 | 1018.9 |
| 20260502024717 | 8 | 127 | 0.0 | 1.6 | 0.00 | 0.00 | 0.00 | 79 | 1018.9 |
| 20260502024219 | 8 | 127 | 0.0 | 1.6 | 0.00 | 0.00 | 0.00 | 78 | 1018.9 |
| 20260502023215 | 8 | 127 | 0.0 | 0.0 | 0.00 | 0.00 | 0.00 | 78 | 1019.0 |
| 20260502022213 | 8 | 127 | 0.0 | 0.0 | 0.00 | 0.00 | 0.00 | 78 | 1019.1 |
| 20260502021216 | 8 | 127 | 0.0 | 0.0 | 0.00 | 0.00 | 0.00 | 77 | 1019.2 |
| 20260502020707 | 8 | 127 | 0.0 | 0.0 | 0.00 | 0.00 | 0.00 | 77 | 1019.2 |
| 20260502020212 | 9 | 127 | 0.0 | 0.0 | 0.00 | 0.00 | 0.00 | 77 | 1019.2 |
| 20260502015708 | 9 | 127 | 0.0 | 0.0 | 0.00 | 0.00 | 0.00 | 77 | 1019.3 |
| 20260502015217 | 9 | 127 | 0.0 | 0.0 | 0.00 | 0.00 | 0.00 | 76 | 1019.3 |
| 20260502014710 | 9 | 127 | 0.0 | 0.0 | 0.00 | 0.00 | 0.00 | 76 | 1019.4 |
| 20260502014206 | 9 | 127 | 0.0 | 0.0 | 0.00 | 0.00 | 0.00 | 76 | 1019.4 |
| 20260502013715 | 9 | 127 | 0.0 | 0.0 | 0.00 | 0.00 | 0.00 | 76 | 1019.4 |
| 20260502013208 | 9 | 127 | 0.0 | 0.0 | 0.00 | 0.00 | 0.00 | 75 | 1019.5 |
| 20260502012719 | 10 | 127 | 0.0 | 0.0 | 0.00 | 0.00 | 0.00 | 75 | 1019.5 |
| 20260502012218 | 10 | 127 | 0.0 | 0.0 | 0.00 | 0.00 | 0.00 | 75 | 1019.6 |
| 20260502011717 | 10 | 127 | 0.0 | 0.0 | 0.00 | 0.00 | 0.00 | 75 | 1019.7 |
| 20260502011211 | 10 | 127 | 0.0 | 0.0 | 0.00 | 0.00 | 0.00 | 74 | 1019.7 |
| 20260502010708 | 10 | 127 | 0.0 | 0.0 | 0.00 | 0.00 | 0.00 | 75 | 1019.8 |
| 20260502010213 | 10 | 127 | 0.0 | 0.0 | 0.00 | 0.00 | 0.00 | 75 | 1019.8 |
| 20260502005719 | 10 | 127 | 0.0 | 1.6 | 0.00 | 0.00 | 0.00 | 75 | 1019.9 |
| 20260502005207 | 10 | 127 | 0.0 | 1.6 | 0.00 | 0.00 | 0.00 | 75 | 1019.9 |
| 20260502004710 | 10 | 127 | 0.0 | 1.6 | 0.00 | 0.00 | 0.00 | 75 | 1020.0 |
| 20260502004213 | 10 | 127 | 0.0 | 3.2 | 0.00 | 0.00 | 0.00 | 74 | 1020.0 |
| 20260502003710 | 10 | 127 | 0.0 | 3.2 | 0.00 | 0.00 | 0.00 | 74 | 1020.1 |
| 20260502003220 | 10 | 127 | 0.0 | 3.2 | 0.00 | 0.00 | 0.00 | 74 | 1020.1 |
| 20260502002708 | 10 | 127 | 0.0 | 1.6 | 0.00 | 0.00 | 0.00 | 74 | 1020.1 |
| 20260502002212 | 10 | 127 | 0.0 | 0.0 | 0.00 | 0.00 | 0.00 | 73 | 1020.3 |
| 20260502001713 | 10 | 127 | 0.0 | 0.0 | 0.00 | 0.00 | 0.00 | 73 | 1020.3 |
| 20260502001219 | 10 | 127 | 0.0 | 0.0 | 0.00 | 0.00 | 0.00 | 72 | 1020.3 |
| 20260502000717 | 10 | 127 | 0.0 | 0.0 | 0.00 | 0.00 | 0.00 | 72 | 1020.4 |
| 20260502000212 | 10 | 127 | 0.0 | 0.0 | 0.00 | 0.00 | 0.00 | 72 | 1020.4 |
| 20260501235706 | 10 | 127 | 0.0 | 0.0 | 0.00 | 0.00 | 0.00 | 72 | 1020.3 |
| 20260501235219 | 11 | 127 | 0.0 | 0.0 | 0.00 | 0.00 | 0.00 | 71 | 1020.4 |
| 20260501234708 | 11 | 127 | 0.0 | 0.0 | 0.00 | 0.00 | 0.00 | 71 | 1020.5 |
| 20260501234208 | 11 | 127 | 0.0 | 0.0 | 0.00 | 0.00 | 0.00 | 71 | 1020.5 |
| 20260501233707 | 11 | 127 | 0.0 | 0.0 | 0.00 | 0.00 | 0.00 | 70 | 1020.5 |
| 20260501233206 | 11 | 127 | 0.0 | 0.0 | 0.00 | 0.00 | 0.00 | 70 | 1020.5 |
| 20260501232710 | 11 | 127 | 0.0 | 0.0 | 0.00 | 0.00 | 0.00 | 70 | 1020.5 |
| 20260501232211 | 11 | 127 | 0.0 | 0.0 | 0.00 | 0.00 | 0.00 | 69 | 1020.5 |
| 20260501231716 | 11 | 127 | 0.0 | 0.0 | 0.00 | 0.00 | 0.00 | 69 | 1020.5 |
| 20260501230720 | 11 | 127 | 0.0 | 1.6 | 0.00 | 0.00 | 0.00 | 68 | 1020.5 |
| 20260501230210 | 11 | 127 | 0.0 | 1.6 | 0.00 | 0.00 | 0.00 | 68 | 1020.6 |
| 20260501225714 | 12 | 127 | 0.0 | 1.6 | 0.00 | 0.00 | 0.00 | 67 | 1020.7 |
| 20260501225219 | 12 | 127 | 0.0 | 0.0 | 0.00 | 0.00 | 0.00 | 67 | 1020.7 |
| 20260501224211 | 12 | 127 | 0.0 | 0.0 | 0.00 | 0.00 | 0.00 | 67 | 1020.7 |
| 20260501223706 | 12 | 127 | 0.0 | 0.0 | 0.00 | 0.00 | 0.00 | 67 | 1020.7 |
| 20260501223207 | 12 | 127 | 0.0 | 0.0 | 0.00 | 0.00 | 0.00 | 67 | 1020.8 |
| 20260501222707 | 12 | 127 | 0.0 | 0.0 | 0.00 | 0.00 | 0.00 | 66 | 1020.7 |
| 20260501221220 | 13 | 127 | 0.0 | 0.0 | 0.00 | 0.00 | 0.00 | 66 | 1020.8 |
| 20260501220708 | 13 | 127 | 0.0 | 0.0 | 0.00 | 0.00 | 0.00 | 66 | 1020.9 |
| 20260501220235 | 13 | 127 | 0.0 | 0.0 | 0.00 | 0.00 | 0.00 | 64 | 1020.9 |
| 20260501213719 | 14 | 127 | 0.0 | 1.6 | 0.00 | 0.00 | 0.00 | 61 | 1021.0 |
| 20260501213217 | 14 | 127 | 0.0 | 0.0 | 0.00 | 0.00 | 0.00 | 61 | 1021.0 |
| 20260501212219 | 15 | 127 | 0.0 | 0.0 | 0.00 | 0.00 | 0.00 | 59 | 1021.0 |
| 20260501211707 | 15 | 127 | 0.0 | 1.6 | 0.00 | 0.00 | 0.00 | 59 | 1021.0 |
| 20260501211209 | 15 | 127 | 0.0 | 1.6 | 0.00 | 0.00 | 0.00 | 59 | 1021.0 |
| 20260501210712 | 15 | 127 | 0.0 | 1.6 | 0.00 | 0.00 | 0.00 | 58 | 1020.9 |
| 20260501210218 | 15 | 127 | 0.0 | 1.6 | 0.00 | 0.00 | 0.00 | 58 | 1021.0 |
| 20260501205710 | 15 | 127 | 0.0 | 1.6 | 0.00 | 0.00 | 0.00 | 57 | 1021.0 |
| 20260501205209 | 15 | 127 | 0.0 | 3.2 | 0.00 | 0.00 | 0.00 | 57 | 1021.0 |
| 20260501204706 | 15 | 127 | 0.0 | 3.2 | 0.00 | 0.00 | 0.00 | 57 | 1021.0 |
| 20260501204208 | 16 | 127 | 0.0 | 3.2 | 0.00 | 0.00 | 0.00 | 56 | 1021.1 |
| 20260501203710 | 16 | 127 | 1.6 | 3.2 | 0.00 | 0.00 | 0.00 | 55 | 1021.1 |
| 20260501203212 | 16 | 127 | 0.0 | 3.2 | 0.00 | 0.00 | 0.00 | 55 | 1021.2 |
| 20260501202214 | 16 | 127 | 0.0 | 3.2 | 0.00 | 0.00 | 0.00 | 54 | 1021.1 |
| 20260501201713 | 16 | 127 | 1.6 | 3.2 | 0.00 | 0.00 | 0.00 | 54 | 1021.2 |
| 20260501201209 | 16 | 127 | 0.0 | 3.2 | 0.00 | 0.00 | 0.00 | 54 | 1021.2 |
| 20260501200718 | 16 | 127 | 0.0 | 3.2 | 0.00 | 0.00 | 0.00 | 53 | 1021.2 |